STARLINK-36860

Last updated on Fri Mar 27 2026 00:02:06 GMT+0000 (Coordinated Universal Time)

1 67935U 26037D 26085.39267064 .00048449 00000+0 82667-3 0 9996 2 67935 42.9997 98.2832 0000969 272.9802 87.0948 15.50575611 5870
UTC large
Height (km)
Speed (km/s)
/
Latitude / Longitude
Inclination (degrees)
Orbital Period (minutes)
Azimuth
Elevation
Range (km)
Doppler Factor

Next 0 passes for location: London (51.5072 / 0.1276)

Sorry there are no passes over London.